Weather History for Air Force Academy, CO

Change the Weather History Date:

Friday, April 12, 2013

  Actual Average Record
Temperature  
Mean Temperature 41 °F -  
Max Temperature 53 °F 52 °F 73 °F (2003)
Min Temperature 29 °F 29 °F 3 °F (1997)
Degree Days  
Heating Degree Days 24    
Moisture  
Dew Point 29 °F    
Average Humidity 68    
Maximum Humidity 94    
Minimum Humidity 37    
Precipitation  
Precipitation 0.01 in - - ()
Sea Level Pressure  
Sea Level Pressure 29.92 in    
Wind  
Wind Speed 5 mph (SE)    
Max Wind Speed 15 mph    
Max Gust Speed -    
Visibility 10 miles    
Events Rain    
Averages and records for this station are not official NWS values.
T = Trace of Precipitation, MM = Missing Value Source: NWS Daily Summary

Daily Weather History Graph

Daily Weather History Graph

Search for Another Location

Airport:

Trip Planner

Search our weather history database for the weather conditions in past years. The results will help you decide how hot, cold, wet, or windy it might be!

Date:

Astronomy

Apr. 12, 2013 Rise Set
Actual Time 6:26 AM MDT 7:33 PM MDT
Civil Twilight 5:59 AM MDT 8:01 PM MDT
Nautical Twilight 5:26 AM MDT 8:34 PM MDT
Astronomical Twilight 4:52 AM MDT 9:08 PM MDT
Moon 7:39 AM MDT (4/12) 10:05 PM MDT (4/12)
Length of Visible Light 14h 02m
Length of Day
13h 07m
Waxing Crescent, 5% of the Moon is Illuminated
Apr 12
Waxing Crescent
Apr 18
First Quarter
Apr 25
Full
May 2
Last Quarter
May 9
New

Hourly Weather History & Observations

Time (MDT) Temp. Windchill Dew Point Humidity Pressure Visibility Wind Dir Wind Speed Gust Speed Precip Events Conditions
12:58 AM 31.3 °F - 28.8 °F 90% 29.90 in 10.0 mi Variable 1.2 mph - N/A   Scattered Clouds
1:08 AM 32.0 °F - 28.4 °F 87% 29.94 in 10.0 mi North 1.2 mph - N/A   Mostly Cloudy
1:58 AM 32.5 °F - 29.8 °F 90% 29.91 in 10.0 mi SE 2.3 mph - N/A   Overcast
2:13 AM 32.0 °F 27.5 °F 30.2 °F 93% 29.93 in 10.0 mi SSE 4.6 mph - N/A   Overcast
2:43 AM 35.6 °F 28.6 °F 30.2 °F 81% 29.93 in 10.0 mi SSE 9.2 mph - N/A   Mostly Cloudy
2:48 AM 35.6 °F 29.2 °F 30.2 °F 81% 29.92 in 10.0 mi SSE 8.1 mph - N/A   Mostly Cloudy
2:58 AM 35.6 °F 29.9 °F 30.2 °F 81% 29.87 in 10.0 mi SE 6.9 mph - N/A   Mostly Cloudy
3:03 AM 35.6 °F 29.2 °F 30.2 °F 81% 29.92 in 10.0 mi SE 8.1 mph - N/A   Mostly Cloudy
3:13 AM 35.6 °F 28.6 °F 30.2 °F 81% 29.91 in 10.0 mi SSE 9.2 mph - N/A   Mostly Cloudy
3:58 AM 34.2 °F 30.0 °F 28.6 °F 80% 29.88 in 10.0 mi SSE 4.6 mph - N/A   Mostly Cloudy
4:38 AM 32.0 °F 26.4 °F 28.4 °F 87% 29.90 in 10.0 mi South 5.8 mph - N/A   Scattered Clouds
4:58 AM 31.8 °F 28.5 °F 27.5 °F 84% 29.89 in 10.0 mi SE 3.5 mph - N/A   Clear
5:58 AM 30.2 °F 24.3 °F 26.6 °F 86% 29.90 in 10.0 mi South 5.8 mph - N/A   Scattered Clouds
6:58 AM 30.4 °F - 26.4 °F 85% 29.91 in 10.0 mi Calm Calm - N/A   Clear
7:58 AM 31.3 °F 27.9 °F 26.8 °F 83% 29.95 in 10.0 mi SSE 3.5 mph - N/A   Clear
8:58 AM 36.0 °F 32.1 °F 27.1 °F 70% 29.94 in 10.0 mi South 4.6 mph - N/A   Clear
9:58 AM 41.2 °F 35.0 °F 26.8 °F 57% 29.91 in 10.0 mi SSE 10.4 mph - N/A   Clear
10:58 AM 44.8 °F 41.6 °F 26.6 °F 49% 29.89 in 10.0 mi Variable 5.8 mph - N/A   Partly Cloudy
11:58 AM 44.8 °F - 26.4 °F 49% 29.91 in 10.0 mi Variable 1.2 mph - N/A   Scattered Clouds
12:58 PM 45.3 °F 43.0 °F 26.6 °F 48% 29.90 in 10.0 mi SE 4.6 mph - N/A   Mostly Cloudy
12:59 PM 44.6 °F 42.2 °F 26.6 °F 49% 29.92 in 10.0 mi SE 4.6 mph - N/A Rain Light Rain Showers
1:00 PM 44.6 °F 41.4 °F 26.6 °F 49% 29.92 in 10.0 mi SE 5.8 mph - N/A   Mostly Cloudy
1:02 PM 44.6 °F 41.4 °F 26.6 °F 49% 29.92 in 10.0 mi South 5.8 mph - N/A Rain Light Rain Showers
1:19 PM 42.8 °F 39.3 °F 32.0 °F 66% 29.91 in 10.0 mi SE 5.8 mph - N/A Rain Light Rain Showers
1:25 PM 44.6 °F 40.7 °F 32.0 °F 61% 29.91 in 10.0 mi ESE 6.9 mph - N/A   Mostly Cloudy
1:49 PM 46.4 °F 43.5 °F 30.2 °F 53% 29.90 in 10.0 mi East 5.8 mph - N/A Rain Light Rain Showers
1:58 PM 47.3 °F - 30.4 °F 52% 29.89 in 10.0 mi SE 5.8 mph - 0.01 in Rain Light Rain Showers
2:17 PM 46.4 °F 44.3 °F 28.4 °F 50% 29.91 in 10.0 mi SSE 4.6 mph - N/A   Mostly Cloudy
2:24 PM 46.4 °F 44.3 °F 30.2 °F 53% 29.91 in 10.0 mi ESE 4.6 mph - N/A Rain Light Rain Showers
2:30 PM 46.4 °F 45.2 °F 28.4 °F 50% 29.91 in 10.0 mi SSE 3.5 mph - N/A Rain Light Rain Showers
2:40 PM 48.2 °F - 30.2 °F 50% 29.90 in 10.0 mi SSW 8.1 mph - N/A   Mostly Cloudy
2:58 PM 50.4 °F - 30.7 °F 47% 29.85 in 10.0 mi South 5.8 mph - 0.00 in   Scattered Clouds
3:58 PM 52.9 °F - 27.0 °F 37% 29.82 in 10.0 mi Variable 4.6 mph - N/A   Clear
4:58 PM 51.3 °F - 28.6 °F 42% 29.87 in 10.0 mi North 13.8 mph - N/A   Clear
5:58 PM 50.7 °F - 30.6 °F 46% 29.90 in 10.0 mi NNE 15.0 mph - N/A   Scattered Clouds
6:58 PM 45.0 °F 39.7 °F 30.7 °F 57% 29.94 in 10.0 mi NNE 10.4 mph - N/A   Partly Cloudy
7:58 PM 40.1 °F 36.9 °F 30.6 °F 69% 29.96 in 10.0 mi NNW 4.6 mph - N/A   Clear
8:58 PM 38.5 °F 33.4 °F 30.7 °F 74% 29.99 in 10.0 mi ENE 6.9 mph - N/A   Clear
9:58 PM 31.8 °F 26.2 °F 28.2 °F 87% 29.99 in 10.0 mi North 5.8 mph - N/A   Clear
10:58 PM 30.0 °F - 26.8 °F 88% 30.01 in 10.0 mi NNW 2.3 mph - N/A   Clear
11:53 PM 30.2 °F 24.3 °F 28.4 °F 93% 30.01 in 10.0 mi SE 5.8 mph - N/A   Mostly Cloudy
11:58 PM 29.8 °F 23.9 °F 28.4 °F 94% 30.03 in 10.0 mi SSE 5.8 mph - N/A   Mostly Cloudy